Regional Weather Roundup
Issued by NWS

Home | Current Version | Previous Version | Graphics & Text | Print | Product List | Glossary On
Versions: 1 2 3 4 5 6 7 8 9 10 11 12 13 14 15 16 17 18 19 20 21 22 23 24 25 26 27 28 29 30 31 32 33 34 35 36 37 38 39 40 41 42 43 44 45 46 47 48 49 50
000
ASUS43 KFSD 290710
RWRSD

WEATHER ROUNDUP FOR SOUTH DAKOTA
NATIONAL WEATHER SERVICE SIOUX FALLS SD
200 AM CDT FRI JUL 29 2016

NOTE: "FAIR" INDICATES FEW OR NO CLOUDS BELOW 12,000 FEET WITH NO
SIGNIFICANT WEATHER AND/OR OBSTRUCTIONS TO VISIBILITY.


SDZ001>005-009-010-012>017-290800-
NORTHWEST AND NORTH CENTRAL SOUTH DAKOTA

CITY           SKY/WX    TMP DP  RH WIND       PRES   REMARKS
BUFFALO          N/A     61  60  97 S7        30.10F
FAITH            N/A     60  58  92 NW5       30.14F
MOBRIDGE       CLOUDY    69  58  67 E5        30.08F
$$

SDZ012>016-024>037-041>051-057-063-072>074-290800-
SOUTHWEST AND SOUTH CENTRAL SOUTH DAKOTA

CITY           SKY/WX    TMP DP  RH WIND       PRES   REMARKS
RAPID CTY ARPT FOG       55  55 100 CALM      30.17S VSB 1/4
PIERRE         CLOUDY    64  63  96 SW6       30.09S
CUSTER         FOG       54  52  93 NW3       30.26F VSB 3/4
ELLSWORTH AFB  CLEAR     59  59  99 E1        30.16S
PHILIP         MOCLDY    59  59 100 W3        30.13S FOG
PINE RIDGE     CLOUDY    59  59 100 E5        30.16F
WINNER         LGT RAIN  63  61  93 NW5       30.12R
$$

SDZ004>011-016>023-039-040-290800-
NORTHEAST SOUTH DAKOTA

CITY           SKY/WX    TMP DP  RH WIND       PRES   REMARKS
ABERDEEN       CLOUDY    66  60  81 N3        30.10R
WATERTOWN      CLOUDY    66  58  75 CALM      30.11S
BROOKINGS      CLOUDY    57  55  93 NW3       30.11R
SISSETON         N/A     62  61  96 S5        30.09R
$$

SDZ017-020-022-023-036>040-048>070-290800-
SOUTHEAST SOUTH DAKOTA

CITY           SKY/WX    TMP DP  RH WIND       PRES   REMARKS
SIOUX FALLS    PTCLDY    59  55  87 NE3       30.08F
HURON          CLOUDY    64  58  80 E3        30.09S
CHAMBERLAIN    CLOUDY    68  66  94 CALM      30.10S
MITCHELL       MOCLDY    63  58  83 E6        30.09S
YANKTON        CLEAR     63  57  82 NE6       30.06S
$$

ABBREVIATIONS USED IN REMARKS
   TC - TEMPERATURE IN CELSIUS
  WCI - WIND CHILL INDEX
   HX - HEAT INDEX
  VSB - VISIBILITY





USA.gov is the U.S. government's official web portal to all federal, state and local government web resources and services.